This is the latest recevied weather packets stored in our database for station/object XE2KK-10. If no packets are shown the sender has not sent any weather packets the latest 10 day(s).
| Time | Temp. | Humidity | Pressure | Rain* | Wind** | Luminosity | Snow |
|---|---|---|---|---|---|---|---|
| 1777597153 | 26.11° C | 72% | 1007.3 hPa | 0 mm | - | 2 W/m² | - |
| 1777596853 | 26.11° C | 72% | 1006.8 hPa | 0 mm | - | 3 W/m² | - |
| 1777596552 | 26.11° C | 72% | 1007 hPa | 0 mm | - | 3 W/m² | - |
| 1777596252 | 26.67° C | 71% | 1006.9 hPa | 0 mm | - | 6 W/m² | - |
| 1777595953 | 26.67° C | 70% | 1006.7 hPa | 0 mm | - | 7 W/m² | - |
| 1777595653 | 26.67° C | 69% | 1006.6 hPa | 0 mm | - | 10 W/m² | - |
| 1777595353 | 27.22° C | 69% | 1006.6 hPa | 0 mm | - | 13 W/m² | - |
| 1777595053 | 27.22° C | 68% | 1006.5 hPa | 0 mm | - | 24 W/m² | - |
| 1777594752 | 27.78° C | 66% | 1006.4 hPa | 0 mm | - | 38 W/m² | - |
| 1777594452 | 27.78° C | 66% | 1006.3 hPa | 0 mm | - | 46 W/m² | - |
| 1777594153 | 27.78° C | 66% | 1006.3 hPa | 0 mm | - | 66 W/m² | - |
| 1777593853 | 28.33° C | 65% | 1006.6 hPa | 0 mm | - | 80 W/m² | - |
| 1777593553 | 28.33° C | 65% | 1006.3 hPa | 0 mm | - | 101 W/m² | - |
| 1777593253 | 27.78° C | 65% | 1006.4 hPa | 0 mm | - | 77 W/m² | - |
| 1777592952 | 28.33° C | 64% | 1006.1 hPa | 0 mm | - | 85 W/m² | - |
| 1777592652 | 28.33° C | 64% | 1006.3 hPa | 0 mm | - | 131 W/m² | - |
| 1777592353 | 28.33° C | 64% | 1005.9 hPa | 0 mm | - | 147 W/m² | - |
| 1777592053 | 28.89° C | 63% | 1005.9 hPa | 0 mm | - | 152 W/m² | - |
| 1777591753 | 28.33° C | 63% | 1005.9 hPa | 0 mm | - | 147 W/m² | - |
| 1777591453 | 28.89° C | 63% | 1005.9 hPa | 0 mm | - | 131 W/m² | - |
| 1777591152 | 29.44° C | 62% | 1005.7 hPa | 0 mm | - | 122 W/m² | - |
| 1777590852 | 29.44° C | 61% | 1005.5 hPa | 0 mm | - | 136 W/m² | - |
| 1777590553 | 29.44° C | 61% | 1005.6 hPa | 0 mm | - | 161 W/m² | - |
| 1777590253 | 29.44° C | 61% | 1005.7 hPa | 0 mm | - | 196 W/m² | - |
| 1777589953 | 29.44° C | 61% | 1005.6 hPa | 0 mm | - | 216 W/m² | - |
* Rain latest hour (hover to see other rain measurements)
** Current wind speed in m/s (hover to see current wind gust speed)